GFSSW_850_spd_210.txt.gz
Wind_Speed
16 15 15 15 14 13 11 8 7 8 7 4 3 4 8 12 9 8 10 9 10 10 9 3 3 1 4 4 3 3 5 2 5 5 2 4 4 3 1 8 6 6 9 6 9
16 15 15 15 15 13 12 9 7 8 8 7 6 7 9 7 12 14 11 11 13 13 13 9 2 3 4 3 3 5 4 8 4 3 1 2 1 2 0 2 1 10 4 3 5
17 15 14 14 15 15 12 9 7 6 6 7 7 9 10 2 6 7 9 11 13 16 11 12 9 5 4 3 5 2 4 3 2 2 1 3 4 1 1 4 10 9 8 8 6
19 16 14 13 14 14 13 9 6 4 4 5 6 9 10 3 2 6 6 7 8 10 13 9 7 4 4 3 5 2 1 2 3 3 1 4 4 3 7 14 13 13 13 11 11
21 19 15 13 13 13 12 9 6 5 4 4 6 8 9 4 4 6 3 4 7 8 9 11 15 3 2 2 5 1 1 6 11 9 6 2 7 6 11 10 10 13 13 15 15
23 20 17 14 12 12 11 8 6 5 5 5 7 8 6 2 4 5 3 2 4 6 6 7 5 4 4 0 2 5 6 11 5 3 4 5 2 2 4 15 15 14 17 19 20
25 22 20 16 11 10 9 8 7 7 7 7 8 9 7 4 4 4 4 3 4 7 8 6 5 2 3 1 5 4 5 5 3 5 4 4 4 3 8 13 14 14 15 18 14
26 24 21 18 13 9 8 8 9 10 9 7 7 8 5 6 5 6 6 3 3 4 6 4 8 4 2 3 6 4 4 5 5 8 2 5 6 8 12 18 21 22 21 18 17
28 26 23 20 15 9 9 9 9 11 11 10 8 4 6 5 5 2 3 2 3 5 3 4 1 1 2 4 5 6 0 2 7 3 1 2 6 8 22 21 26 27 24 22 19
28 27 25 22 16 8 7 8 11 11 6 9 10 4 7 4 4 5 5 4 4 6 2 3 2 3 3 4 2 4 1 3 5 5 1 5 8 9 26 21 24 23 22 21 20
29 28 26 22 17 6 5 8 6 3 5 10 11 13 8 7 9 9 9 8 6 2 1 2 4 3 7 7 4 3 3 4 5 6 1 7 7 15 21 13 16 18 16 16 19
31 29 27 25 15 4 5 2 2 8 12 19 23 25 23 17 7 11 13 7 4 2 2 5 3 7 4 2 5 4 3 6 5 4 4 7 12 9 7 8 9 15 14 13 20
32 31 28 24 15 3 1 3 6 10 6 9 5 6 10 16 12 11 7 9 4 2 4 6 6 2 2 1 2 3 5 5 7 2 4 4 8 6 6 5 10 10 10 13 13
33 33 30 24 11 6 3 6 8 10 4 6 3 3 10 7 5 12 17 9 2 8 5 5 2 5 3 5 6 3 6 5 3 3 3 3 5 6 6 9 5 10 11 9 8
31 32 30 23 16 9 5 4 7 6 5 2 2 3 6 7 1 3 11 12 9 8 6 8 4 5 5 6 6 8 2 2 1 1 2 2 1 7 4 5 3 7 6 8 11
30 31 28 24 18 6 7 5 4 5 5 3 3 3 4 5 3 3 6 7 3 5 2 7 2 5 7 1 5 2 3 5 4 3 1 5 5 5 3 4 3 3 1 7 10
33 32 25 19 8 4 2 3 5 4 4 4 3 5 4 3 3 4 4 5 6 3 4 3 4 4 5 4 1 5 6 3 4 3 5 1 1 8 6 7 6 6 4 3 5
34 31 16 11 9 10 3 5 3 3 4 4 6 7 5 2 4 2 2 3 4 3 2 4 6 6 5 6 8 4 7 5 5 4 5 1 6 6 8 12 15 12 10 7 0
33 25 20 12 5 3 3 3 6 3 4 7 8 3 4 2 2 2 2 4 6 7 7 5 5 3 1 3 6 3 4 3 3 2 2 5 7 8 7 7 9 12 10 13 6
32 21 17 14 2 2 4 4 4 4 5 2 2 3 4 4 2 2 2 3 3 3 2 2 3 3 2 4 3 5 7 2 2 3 5 5 5 7 3 8 7 4 9 8 12
24 11 11 16 5 1 2 5 4 11 10 3 3 6 7 5 5 5 4 4 4 3 4 6 5 5 1 6 8 1 1 4 3 5 4 3 6 6 8 5 5 8 11 11 19
17 5 16 21 1 3 2 6 10 9 18 6 5 3 3 4 5 4 7 7 7 7 5 5 5 5 9 3 1 3 7 7 4 4 3 2 9 7 8 5 6 13 16 17 23
16 8 13 19 4 4 6 5 4 7 6 6 5 6 6 4 6 5 6 8 17 9 7 6 2 2 6 5 2 4 4 5 4 3 6 3 7 2 3 6 14 16 24 29 30
8 4 8 10 8 4 5 4 6 10 1 9 5 7 5 6 4 7 9 5 7 4 7 9 6 8 11 7 4 4 5 5 7 4 3 20 24 22 19 17 17 26 28 28 34
9 4 4 5 4 4 2 4 6 4 7 9 2 7 7 5 6 5 5 12 13 8 3 1 6 4 4 4 5 8 11 12 14 17 10 32 21 27 13 9 16 21 12 16 16
6 6 6 7 11 8 3 3 3 4 6 7 5 10 7 8 7 5 8 6 8 9 3 3 4 7 9 15 14 21 18 16 19 22 19 26 33 13 10 1 4 9 11 9 2
7 3 1 5 5 2 3 3 4 14 10 4 10 10 13 12 14 25 25 25 18 11 14 4 1 1 9 2 4 11 14 20 14 15 14 17 18 3 3 5 7 15 16 17 18

GFSSW_850_spd_216.txt.gz
Wind_Speed
17 15 14 14 13 11 7 5 5 5 5 3 3 7 6 8 13 10 5 5 6 5 6 6 4 6 6 5 3 3 6 10 10 11 8 6 6 3 1 3 5 5 7 7 6
18 16 14 13 13 12 8 5 4 5 5 4 4 6 4 8 7 6 10 10 9 8 5 5 7 9 7 5 5 8 8 5 5 3 6 5 4 1 5 5 5 4 3 2 3
20 18 16 13 11 11 9 5 3 3 3 2 3 5 3 7 5 5 7 7 8 6 5 4 7 7 6 6 4 5 5 4 8 5 3 4 7 5 7 8 6 7 6 5 5
23 20 17 15 11 9 8 5 3 1 0 1 3 6 1 9 1 7 6 7 8 10 2 3 7 9 6 7 4 7 3 4 7 5 4 6 5 11 11 10 2 5 6 8 9
23 22 19 16 12 9 7 4 2 2 2 3 3 4 2 4 5 10 8 5 5 4 4 2 6 6 8 5 6 6 7 5 5 6 8 5 10 10 11 6 6 6 7 8 10
23 22 21 19 15 10 7 5 3 2 3 4 4 4 2 7 9 9 5 2 2 1 2 2 2 3 4 4 9 3 5 6 5 5 8 10 7 5 9 6 6 6 8 10 11
24 23 21 19 17 13 8 7 6 5 6 5 5 4 6 1 8 8 5 4 4 2 1 2 2 3 3 6 2 5 10 8 9 6 6 6 10 10 7 8 10 13 13 14 13
24 24 23 21 18 13 9 7 8 8 9 7 7 5 7 10 11 9 6 6 5 3 2 2 1 1 4 2 6 10 9 12 10 7 8 6 10 12 9 11 16 18 19 20 21
24 23 23 22 19 13 7 6 7 9 10 10 6 4 6 10 9 7 8 7 6 3 4 3 4 3 6 10 8 9 10 11 8 7 3 9 10 4 10 13 18 20 22 22 22
26 22 22 22 18 12 6 7 10 9 6 4 7 5 9 9 9 7 7 8 6 6 5 7 7 8 8 9 9 5 10 8 11 8 9 13 16 12 13 16 18 20 20 18 17
28 25 20 19 16 8 5 7 4 2 4 11 5 7 3 7 10 9 8 8 6 8 9 5 9 11 9 5 8 9 10 12 8 7 9 13 15 15 15 17 14 13 13 13 13
26 26 23 18 13 5 3 1 1 5 10 12 15 17 17 6 9 13 10 10 10 11 5 7 10 8 4 6 9 11 13 13 10 10 8 15 18 16 17 17 12 10 10 12 11
27 27 24 17 8 4 1 3 4 8 7 4 4 4 8 18 13 12 15 15 10 10 10 10 7 4 10 9 10 12 13 12 13 11 12 17 20 20 7 12 13 12 12 11 11
27 27 25 18 3 7 2 5 6 5 5 6 4 4 5 8 10 16 14 13 9 10 10 9 1 7 11 11 10 13 10 12 14 13 12 2 11 9 13 12 14 20 14 12 10
26 24 22 19 9 3 5 3 3 2 5 4 6 4 6 7 2 8 13 13 14 9 7 3 8 8 11 11 8 14 6 12 14 15 16 15 11 13 4 10 11 14 12 9 6
25 20 18 18 9 4 4 3 2 6 5 5 4 3 6 10 6 4 8 12 7 14 15 18 16 10 15 11 9 9 12 13 12 13 15 19 16 10 10 9 11 11 11 10 9
23 16 13 11 8 2 3 2 5 6 3 3 2 2 5 5 5 9 12 12 11 13 15 18 19 19 15 17 15 12 15 10 12 10 11 4 7 15 2 6 8 10 14 12 11
22 11 8 10 8 3 1 5 7 4 2 3 3 8 7 4 7 7 10 13 16 18 17 18 19 14 12 19 17 13 15 12 14 12 10 8 7 5 6 13 13 12 12 14 11
23 5 7 11 2 0 7 6 4 3 6 7 9 10 10 5 5 7 12 12 14 9 16 14 20 11 6 13 12 15 11 16 20 20 16 17 22 11 13 12 12 15 16 17 13
24 3 10 11 5 2 5 3 3 7 8 6 8 4 10 9 11 8 8 6 9 4 11 14 17 16 13 8 11 14 15 11 11 16 22 16 18 10 4 13 14 14 18 19 17
16 3 11 13 3 7 6 4 2 6 11 7 5 9 12 12 9 13 7 7 11 12 18 14 17 18 18 15 18 12 16 16 15 16 17 19 14 7 3 8 12 13 19 14 15
11 2 18 6 2 3 2 4 6 8 10 4 6 7 8 8 12 13 13 11 11 16 14 9 7 15 19 17 14 17 21 17 13 17 18 18 20 12 11 10 8 10 8 12 10
12 6 11 11 2 3 4 3 4 8 7 5 4 4 5 8 8 11 10 6 15 14 10 10 8 13 19 18 17 16 25 23 23 16 23 20 20 5 3 9 11 14 11 14 19
8 4 6 12 8 5 5 2 3 6 2 6 7 6 8 10 10 9 11 10 11 19 15 8 15 18 18 23 21 20 21 25 23 16 26 21 30 25 14 12 14 20 26 22 24
7 4 3 4 4 5 4 3 4 3 3 6 4 5 7 6 12 16 11 16 21 18 20 5 19 18 24 25 20 19 20 24 23 28 27 27 26 24 20 18 18 31 22 21 24
5 5 4 7 4 5 1 2 5 3 5 5 5 4 9 13 15 20 19 16 13 11 14 14 16 15 25 22 23 24 24 24 24 25 19 26 27 25 32 34 26 19 18 16 15
5 5 3 1 2 5 3 3 3 7 6 9 10 12 15 15 14 17 21 25 25 20 19 18 17 17 26 19 22 22 22 24 26 23 25 23 27 31 26 12 11 13 12 12 14

GFSSW_850_spd_219.txt.gz
Wind_Speed
17 15 12 11 10 9 6 4 3 2 2 1 3 6 4 6 11 4 2 4 3 5 6 5 6 9 10 13 12 12 11 14 16 9 8 9 12 6 1 4 8 3 8 11 12
19 17 15 12 10 9 6 3 2 1 2 1 2 5 1 6 5 5 4 7 6 7 5 7 8 10 16 11 11 12 12 16 3 6 2 9 10 9 9 9 9 9 7 8 10
21 19 17 15 10 8 6 3 0 1 2 1 2 4 3 5 9 8 7 6 5 5 1 6 7 11 15 12 13 16 15 4 2 6 7 5 11 5 11 11 13 14 13 10 9
21 20 19 17 14 9 6 4 2 2 3 3 3 4 3 8 2 9 7 6 4 3 4 6 9 13 14 11 7 12 8 6 7 6 8 10 11 12 12 15 3 5 5 8 10
21 20 19 17 15 11 7 5 3 3 3 4 4 3 2 9 9 9 9 7 4 2 4 7 11 14 12 10 6 12 6 8 4 8 12 11 9 13 16 16 7 11 11 13 13
21 21 20 18 17 13 8 7 5 4 4 4 5 5 4 14 6 9 8 6 4 4 3 5 6 7 14 8 11 8 4 10 11 13 13 13 15 14 15 12 10 14 15 16 15
22 21 20 19 17 15 10 7 7 7 6 5 5 6 10 8 5 8 9 6 6 5 6 4 4 8 4 11 12 8 11 13 14 13 10 11 15 15 16 11 15 15 15 15 14
24 21 20 20 18 14 8 6 7 7 8 7 6 6 11 9 8 9 8 8 6 6 6 5 6 10 10 4 7 14 14 15 17 12 12 9 15 19 17 13 16 18 19 18 19
24 23 21 19 20 14 7 6 7 8 9 8 6 8 13 9 13 11 10 9 7 6 6 5 7 13 7 12 13 11 13 16 12 14 11 13 14 7 12 15 17 19 21 23 24
25 23 21 18 16 13 6 7 8 7 6 4 8 7 13 11 13 10 10 10 9 7 8 10 10 10 12 13 12 8 15 14 11 14 13 15 18 16 15 19 21 21 22 22 23
25 24 23 18 13 10 6 7 4 4 11 13 5 11 2 6 9 11 11 10 10 10 13 14 10 13 12 11 13 11 14 14 13 9 9 13 18 20 21 20 21 23 21 20 22
25 24 22 19 9 4 3 6 4 7 12 15 17 18 15 9 12 15 13 13 14 13 14 7 14 11 10 8 10 13 16 17 16 14 13 17 20 20 21 23 24 23 19 18 17
25 22 20 19 5 2 5 3 6 9 9 7 5 8 11 19 16 17 16 17 14 13 14 13 16 4 10 10 11 15 15 15 16 14 14 17 23 24 25 32 29 27 20 17 19
26 22 18 16 4 7 3 5 7 7 6 10 10 5 7 11 12 16 18 17 13 15 14 13 10 4 10 12 12 15 12 12 14 14 14 16 16 17 10 10 14 18 20 21 20
26 22 15 12 6 6 6 7 6 5 6 6 8 4 7 15 5 13 15 17 17 14 8 15 8 10 12 13 10 14 13 14 14 17 18 21 13 17 16 20 19 15 22 21 21
25 22 13 11 7 7 9 7 4 7 8 7 6 6 9 11 8 6 11 15 13 15 19 20 22 17 14 16 15 13 15 16 18 17 17 20 19 20 17 14 12 13 17 17 16
22 19 9 7 10 13 7 5 7 8 4 4 3 3 5 7 8 12 12 13 13 17 17 20 23 22 20 18 19 17 13 13 16 15 17 20 15 12 8 3 6 12 15 15 15
23 15 5 5 12 8 4 9 10 4 3 5 3 7 11 9 7 12 12 15 16 20 18 19 20 19 17 20 17 20 17 14 20 17 19 10 8 13 10 8 12 12 13 16 15
20 7 3 10 11 6 10 9 5 11 8 7 12 14 15 10 5 8 13 16 18 16 18 18 24 18 20 13 12 17 19 22 21 23 18 22 29 18 15 16 13 14 17 16 19
20 6 5 16 10 7 11 14 1 6 10 7 12 9 13 10 6 7 13 9 12 11 12 15 21 15 18 20 18 16 19 18 11 16 24 21 23 17 17 13 18 14 18 19 20
11 4 6 18 6 12 9 6 5 5 9 6 12 13 13 15 14 14 12 15 7 9 16 15 19 22 21 22 24 18 18 19 20 19 19 21 17 11 6 9 9 15 20 20 22
9 4 13 10 12 4 5 5 3 6 6 8 7 12 11 11 15 16 18 15 11 9 14 15 15 19 24 26 27 26 20 21 11 16 19 19 22 20 4 7 16 17 21 18 25
11 6 9 11 4 3 3 5 3 7 6 7 8 4 10 10 10 10 11 11 12 10 12 11 8 16 21 20 19 21 16 11 17 18 23 21 23 18 22 17 14 19 17 16 13
7 4 3 7 6 7 5 3 6 1 6 7 9 9 10 10 12 10 11 10 13 13 11 11 14 20 20 23 23 29 27 22 15 6 13 20 27 30 23 14 12 20 17 17 20
4 4 4 4 3 6 5 4 7 5 2 9 6 7 7 7 11 15 13 13 17 20 20 14 20 22 25 25 26 27 30 32 27 25 22 23 20 26 27 23 25 14 13 25 28
8 7 7 14 6 7 4 2 7 3 5 7 7 9 9 12 14 19 18 16 15 14 14 12 18 19 27 24 24 26 30 30 31 32 30 29 33 25 32 37 36 16 31 34 37
8 6 7 5 4 6 3 5 6 8 9 9 10 12 13 14 16 18 20 24 23 19 18 17 16 16 23 21 23 23 26 27 29 29 24 26 28 27 23 21 25 30 21 19 9

GFSSW_850_spd_222.txt.gz
Wind_Speed
19 18 16 13 10 9 7 6 5 2 2 2 4 7 6 1 5 5 5 5 4 7 5 3 7 9 10 16 17 15 10 13 19 19 7 16 5 9 6 4 3 4 12 16 13
20 19 17 15 12 10 7 5 4 3 2 2 4 6 4 6 9 12 14 9 5 5 7 6 9 10 14 15 17 14 11 20 16 16 4 12 9 10 6 13 5 1 10 7 11
21 19 19 18 15 11 8 6 5 4 4 4 5 6 7 9 14 16 13 6 6 6 1 8 12 10 16 16 17 18 16 20 16 11 16 7 5 7 1 10 11 16 13 11 9
22 21 20 19 17 14 9 7 6 5 5 6 7 7 8 7 4 11 5 5 6 7 6 8 8 12 16 15 15 18 19 23 11 5 7 8 8 8 13 16 3 6 7 16 12
22 21 21 20 18 15 12 9 7 6 5 5 6 7 6 9 18 9 6 5 8 3 11 11 12 13 15 16 16 10 15 14 14 6 7 13 12 13 15 12 17 8 4 6 7
22 21 21 20 20 17 12 9 8 7 6 6 7 7 8 15 7 6 5 7 6 8 9 8 10 10 15 14 14 15 15 17 12 14 15 13 16 15 18 16 16 7 13 15 16
23 22 21 19 19 18 13 9 8 8 8 7 8 8 12 18 4 5 9 8 8 7 8 8 9 9 9 14 13 13 11 13 15 16 14 12 15 19 22 16 22 13 18 18 20
24 23 21 20 17 17 12 8 7 8 8 8 9 9 11 6 12 11 9 9 8 8 8 9 7 12 16 15 8 10 14 16 17 19 16 10 15 17 25 17 14 17 19 19 19
24 22 21 21 17 15 11 7 8 9 9 9 9 10 17 8 13 13 12 12 11 8 8 8 8 14 16 11 12 15 14 19 19 19 12 15 14 19 13 18 16 19 21 22 21
25 23 20 19 18 12 9 9 10 10 7 7 11 9 19 14 13 13 13 12 11 8 9 9 11 11 11 11 12 16 18 13 13 15 15 14 17 16 18 15 21 20 22 22 23
26 23 20 20 17 10 7 8 6 2 12 15 8 14 1 7 8 12 11 10 11 12 12 17 10 12 16 15 16 16 13 16 18 6 17 18 16 16 20 22 23 25 24 23 24
25 23 19 19 14 4 3 5 6 11 16 21 28 26 21 10 12 14 14 13 13 13 15 11 15 13 11 12 14 11 14 16 16 17 16 18 19 17 17 22 27 26 24 24 24
27 24 18 15 7 5 6 10 11 14 10 22 20 14 18 18 17 15 19 16 15 15 14 15 16 9 5 12 15 11 14 15 16 16 18 17 19 19 22 29 32 32 28 25 22
28 25 19 9 5 8 5 6 11 11 6 10 10 6 7 8 18 19 19 17 14 16 16 13 15 12 9 12 12 13 15 14 14 13 12 14 16 19 18 19 15 30 26 25 26
27 25 16 10 8 8 11 12 10 6 6 11 10 5 7 13 9 15 16 21 16 17 13 14 16 10 11 14 14 14 14 15 17 17 17 20 13 17 18 19 19 17 24 22 18
24 23 13 8 7 8 15 11 5 5 7 7 8 8 10 14 10 9 12 15 15 16 17 19 24 19 19 17 16 13 19 16 16 15 15 21 18 20 17 18 14 17 26 25 26
23 18 8 3 6 13 11 7 6 6 4 2 4 3 8 9 12 12 12 12 13 13 16 20 23 23 21 20 20 18 16 13 15 13 16 21 15 13 23 8 6 6 8 9 17
22 11 2 1 11 10 5 8 8 14 11 7 3 4 9 13 14 13 12 14 16 19 18 19 19 18 16 19 17 17 14 12 15 14 20 25 21 17 13 13 15 10 9 17 17
21 5 4 6 11 7 5 6 12 9 11 11 10 11 15 16 18 6 15 11 15 17 17 17 22 21 21 21 21 19 15 15 17 19 16 20 25 26 21 15 16 12 14 15 17
19 6 3 11 11 5 7 8 13 9 11 10 11 10 15 16 12 8 9 5 14 14 18 15 17 14 18 22 20 21 17 16 12 21 22 22 21 16 14 11 12 4 39 14 15
10 8 4 15 5 8 8 5 5 8 11 10 13 15 16 16 17 18 16 16 13 13 16 15 14 19 20 17 20 18 18 15 11 14 11 18 16 16 11 13 12 3 5 26 25
8 5 11 13 5 4 4 5 4 8 9 5 7 11 12 12 13 16 17 17 18 10 8 11 7 16 20 22 24 24 24 20 11 12 5 10 18 18 24 10 26 16 32 30 22
13 9 6 9 3 4 6 8 2 5 7 5 8 9 10 9 8 8 10 12 16 13 8 7 5 12 14 13 17 17 16 16 14 3 11 11 12 17 26 26 24 16 22 34 37
7 4 5 4 4 6 8 10 5 5 3 3 10 11 9 10 9 9 15 12 16 13 7 3 8 14 16 19 19 24 27 24 19 7 16 19 25 26 23 22 24 18 24 33 34
5 5 4 5 6 8 7 9 11 8 1 7 5 5 8 8 10 13 15 13 17 19 19 11 16 18 21 22 21 24 27 24 25 25 21 26 23 23 22 22 25 22 15 21 32
8 8 14 17 12 8 5 8 4 9 4 10 12 12 9 11 13 16 16 14 15 15 15 13 16 18 24 21 23 27 25 24 26 26 27 26 27 17 33 35 30 28 17 18 17
12 10 10 12 13 6 4 5 6 10 10 8 7 10 13 13 16 16 19 23 22 18 17 17 14 15 22 19 21 21 19 22 22 19 17 12 15 18 19 22 29 29 15 7 17